STARLINK-1832, 46780

Orbit data source: Space-Track

STARLINK-1832, 46780 is a payload satellite owned by SpaceX/Seattle (US) in LEO that was launched on Sat, 24 Oct 2020 UTC via an FALCON 9 launch vehicle from the Air Force Eastern Test Range (AFETR). Payload-class satellites include a variety of spacecraft equipped with specific instruments for various scientific and technological missions. These include communications satellites like Starlink; space stations such as the ISS; scientific satellites like the Hubble; Earth observation satellites from companies like Planet Labs, Umbra, and HawkEye 360; GPS; miniature CubeSats for education and research; and military/defense satellites.

Loading next visibility...
Identifier
46780, 2020-074AT
Orbit
LEO
Country
Flag of USUS
Related business
Manufacturer
SpaceX/Seattle
Mission
Operational Commercial Communications
Bus & Motor
STARLINK, Unknown motor
Mass
260 kg wet, ~248 kg dry
Launch date (UTC)
2020-10-24 (5 years ago)
Launch vehicle
FALCON 9
Launch site
Air Force Eastern Test Range (AFETR)
Object type
Payload
Rocket body
Debris
Shape & HBR
Box + 1 Pan, 10.1 m
Radar Cross Section
13.562 m², Large (>1 m²)

Expand to show TLE details & history
Last TLE update: 18 hours ago

TLE from 18 hours ago
0 STARLINK-1832
1 46780U 20074AT  25286.60786113 -.00001087  00000-0 -54112-4 0  9998
2 46780  53.0555 251.8958 0001637 100.4132 259.7042 15.06396958274640
Epoch: 2025-10-13T14:35Z
TLE epoch observation values (Epoch: 2025-10-13T14:35:19.201Z)
Latitude
0.00001°
Longitude
10.6576°
Altitude
548.303 km
Speed
7.589 km/s
True Right ascension
16h 47m 34s
True Declination
0° 00' 00"
Sunlit
Object was in daylight at epoch
Visualization orbit readout
Latitude
Unknown
Longitude
Unknown
Altitude
Unknown
Speed
Unknown
Apparent Right ascension
Unknown
Apparent Declination
Unknown
Sunlit
N/A
Visualization observer readout
Local Sidereal Time
02:42:10
Azimuth
Unknown
Elevation
Unknown
Doppler factor
Unknown
Orbital elements
Apogee altitude
548.625 km
Perigee altitude
546.358 km
Semi-major axis
6,925.628 km
Eccentricity
0.00016
Inclination
53.0555°
RAAN
251.8958°
Arg. of periapsis
100.4132°
True anomaly
259.68574°
Mean anomaly
259.7042°
Eccentric anomaly
259.69497°
Mean motion
3.76578 °/min
Orbital period
95.6 mins
BSTAR
-0.000054112
Loading maneuver chart data...
Computing Atmospheric mass density...

Documentation

Showing up to 5 results
|